Darstellungsparameter: Aktuell verwendete Einstellungen:
Skalierung der Graphiken ... ?
xyx+y,   Skalierungsfaktor:      Skalierung: Modus: x, Faktor: 1
Darstellungszeitraum ... ?
Vom - - bis: - -   Zeitraum: 03.10.2010 - 05.10.2010
Min/Max/Avg-Anzeige ... ?
Zeige MMA aktuell
Zeige MMA Monat
Zeige MMA alles
Zeige --A aktuell
Zeige --A Monat
Zeige --A alles
Keine MMA-Anzeige
MMA:
Average (ber die Originaldaten)
MMA-Basis: 27.08.2020 - 29.09.2020
Quicknavigation für Darstellung... ?
Tage:      1T, 2T, 3T, 5T -1T -2T -3T -5T +1T +2T +3T +5T
Wochen: 1W, 2W, 3W -1W -2W -3W +1W +2W +3W
Monate: 1M, 3M, 6M -1M -3M -6M +1M +3M +6M
Jahre:    1J, 3J, 5J, 10J -1J -3J -5J -10J +1J +3J +5J +10J
Nutze für die Darstellung ... ?
Originaldaten oder Mittelwerte auf ...
Stundenbasis Tagesbasis Wochenbasis
Monatsbasis Jahresbasis      Datenbasis: Original-Daten
Darstellen als:
Statistik (Auto) Statistik J:M      Darstellung:
Zur Graphik,    zurück zur Übersicht aller Sensoren.
 
Tabellarische Datenbersicht: ?
 
Sensor: Nr:Datum:Temp:Abs-Feuchte:Windchill:Wind:
Aussen-T/F 1 03-10-2010 00:05:03 14.6 C 11.14 g/m*3 14.6 C 0 km/h
2 03-10-2010 00:17:03 14.4 C 11 g/m*3 14.4 C 0 km/h
3 03-10-2010 00:29:03 14.3 C 10.93 g/m*3 14.3 C 0 km/h
4 03-10-2010 00:41:03 14.4 C 11.13 g/m*3 14.4 C 0 km/h
5 03-10-2010 00:53:03 14.5 C 11.19 g/m*3 14.5 C 0 km/h
6 03-10-2010 01:05:03 14.5 C 11.07 g/m*3 14.5 C 0 km/h
7 03-10-2010 01:17:03 14.6 C 10.89 g/m*3 14.6 C 0 km/h
8 03-10-2010 01:29:03 14.7 C 10.58 g/m*3 14.7 C 0 km/h
9 03-10-2010 01:41:03 14.8 C 10.51 g/m*3 14.8 C 0 km/h
10 03-10-2010 01:53:03 14.9 C 10.45 g/m*3 14.9 C 0 km/h
11 03-10-2010 02:05:03 15 C 10.26 g/m*3 15 C 0 km/h
12 03-10-2010 02:17:03 14.8 C 10.39 g/m*3 14.8 C 0 km/h
13 03-10-2010 02:29:03 14.6 C 10.39 g/m*3 14.6 C 0 km/h
14 03-10-2010 02:41:03 14.4 C 10.26 g/m*3 14.4 C 0 km/h
15 03-10-2010 02:53:03 14.1 C 10.32 g/m*3 14.1 C 0 km/h
16 03-10-2010 03:05:03 14 C 10.37 g/m*3 14 C 0 km/h
17 03-10-2010 03:17:03 13.8 C 10.48 g/m*3 13.8 C 0 km/h
18 03-10-2010 03:29:04 13.8 C 10.6 g/m*3 13.8 C 0 km/h
19 03-10-2010 03:41:04 13.9 C 10.67 g/m*3 13.9 C 0 km/h
20 03-10-2010 03:53:04 14.1 C 10.8 g/m*3 14.1 C 0 km/h
21 03-10-2010 04:05:04 14 C 10.74 g/m*3 14 C 0 km/h
22 03-10-2010 04:17:04 14.1 C 10.68 g/m*3 14.1 C 0 km/h
23 03-10-2010 04:29:04 14 C 10.61 g/m*3 14 C 0 km/h
24 03-10-2010 04:41:04 14 C 10.49 g/m*3 14 C 0 km/h
25 03-10-2010 04:53:04 14.3 C 10.57 g/m*3 14.3 C 0 km/h
Sensor: Nr:Datum:Temp:Abs-Feuchte:Windchill:Wind:
Aussen-T/F 26 03-10-2010 05:05:04 14.3 C 10.44 g/m*3 14.3 C 0 km/h
27 03-10-2010 05:17:04 14.4 C 10.38 g/m*3 14.4 C 0 km/h
28 03-10-2010 05:29:04 14.4 C 10.38 g/m*3 14.4 C 0 km/h
29 03-10-2010 05:41:04 14.2 C 10.26 g/m*3 14.2 C 0 km/h
30 03-10-2010 05:53:04 14 C 10.25 g/m*3 14 C 0 km/h
31 03-10-2010 06:05:04 13.8 C 10.37 g/m*3 13.8 C 0 km/h
32 03-10-2010 06:17:04 13.5 C 10.18 g/m*3 13.5 C 0 km/h
33 03-10-2010 06:29:04 13.4 C 10.23 g/m*3 13.4 C 0 km/h
34 03-10-2010 06:41:04 13.3 C 10.17 g/m*3 13.3 C 0 km/h
35 03-10-2010 06:53:04 13.3 C 10.28 g/m*3 13.3 C 0 km/h
36 03-10-2010 07:05:04 13.3 C 10.28 g/m*3 13.3 C 0 km/h
37 03-10-2010 07:17:04 13.4 C 10.46 g/m*3 13.4 C 0 km/h
38 03-10-2010 07:29:04 13.4 C 10.46 g/m*3 13.4 C 0 km/h
39 03-10-2010 07:41:05 13.5 C 10.53 g/m*3 13.5 C 0 km/h
40 03-10-2010 07:53:02 13.5 C 10.41 g/m*3 13.5 C 0 km/h
41 03-10-2010 08:05:01 13.7 C 10.42 g/m*3 13.7 C 0 km/h
42 03-10-2010 08:17:02 13.9 C 10.43 g/m*3 13.9 C 0 km/h
43 03-10-2010 08:29:02 13.9 C 10.43 g/m*3 13.9 C 0 km/h
44 03-10-2010 08:41:01 14.1 C 10.44 g/m*3 14.1 C 0 km/h
45 03-10-2010 08:53:03 14.3 C 10.32 g/m*3 14.3 C 0 km/h
46 03-10-2010 09:05:02 14.8 C 10.26 g/m*3 14.8 C 0 km/h
47 03-10-2010 09:17:02 15 C 10 g/m*3 15 C 0 km/h
48 03-10-2010 09:29:03 15.1 C 9.93 g/m*3 15.1 C 0 km/h
49 03-10-2010 09:41:02 15.2 C 10.12 g/m*3 15.2 C 0 km/h
50 03-10-2010 09:53:02 15.5 C 10.05 g/m*3 15.5 C 0 km/h
Sensor: Nr:Datum:Temp:Abs-Feuchte:Windchill:Wind:
Aussen-T/F 51 03-10-2010 10:05:02 16.2 C 10.2 g/m*3 16.2 C 0 km/h
52 03-10-2010 10:17:02 16.9 C 9.92 g/m*3 16.9 C 0 km/h
53 03-10-2010 10:29:03 17 C 9.69 g/m*3 17 C 0 km/h
54 03-10-2010 10:41:01 17 C 9.84 g/m*3 17 C 0 km/h
55 03-10-2010 10:53:02 16.8 C 9.87 g/m*3 16.8 C 0 km/h
56 03-10-2010 11:05:01 17.2 C 9.81 g/m*3 17.2 C 0 km/h
57 03-10-2010 11:17:02 17.6 C 10.35 g/m*3 17.6 C 0 km/h
58 03-10-2010 11:29:02 17.9 C 10.23 g/m*3 17.9 C 0 km/h
59 03-10-2010 11:41:02 18.5 C 9.97 g/m*3 18.5 C 0 km/h
60 03-10-2010 11:53:02 19.5 C 10.24 g/m*3 19.5 C 0 km/h
61 03-10-2010 12:05:03 19.7 C 9.85 g/m*3 19.7 C 0 km/h
62 03-10-2010 12:17:02 19.7 C 10.02 g/m*3 19.7 C 0 km/h
63 03-10-2010 12:29:02 19.3 C 9.45 g/m*3 19.3 C 0 km/h
64 03-10-2010 12:41:02 19.7 C 9.68 g/m*3 19.7 C 0 km/h
65 03-10-2010 12:53:01 20 C 9.68 g/m*3 20 C 0 km/h
66 03-10-2010 13:05:02 20.7 C 9.9 g/m*3 20.7 C 0 km/h
67 03-10-2010 13:17:01 21.1 C 9.58 g/m*3 21.1 C 0 km/h
68 03-10-2010 13:29:01 21.5 C 9.62 g/m*3 21.5 C 0 km/h
69 03-10-2010 13:41:01 21.7 C 8.97 g/m*3 21.7 C 0 km/h
70 03-10-2010 13:53:01 21.8 C 9.02 g/m*3 21.8 C 0 km/h
71 03-10-2010 14:05:02 22.2 C 8.83 g/m*3 22.2 C 0 km/h
72 03-10-2010 14:17:01 22.7 C 9.5 g/m*3 22.7 C 0 km/h
73 03-10-2010 14:29:01 23.2 C 9.15 g/m*3 23.2 C 0 km/h
74 03-10-2010 14:41:01 24.4 C 9.12 g/m*3 24.4 C 0 km/h
75 03-10-2010 14:53:01 24.2 C 8.8 g/m*3 24.2 C 0 km/h
Sensor: Nr:Datum:Temp:Abs-Feuchte:Windchill:Wind:
Aussen-T/F 76 03-10-2010 15:05:02 24.4 C 8.68 g/m*3 24.4 C 0 km/h
77 03-10-2010 15:17:02 24.4 C 8.68 g/m*3 24.4 C 0 km/h
78 03-10-2010 15:29:02 24.5 C 8.5 g/m*3 24.5 C 0 km/h
79 03-10-2010 15:41:01 24.9 C 8.7 g/m*3 24.9 C 0 km/h
80 03-10-2010 15:53:02 25.4 C 8.48 g/m*3 25.4 C 0 km/h
81 03-10-2010 16:05:01 24.6 C 8.33 g/m*3 24.6 C 0 km/h
82 03-10-2010 16:17:02 24.7 C 8.37 g/m*3 24.7 C 0 km/h
83 03-10-2010 16:29:02 25.1 C 8.57 g/m*3 25.1 C 0 km/h
84 03-10-2010 16:41:01 25.4 C 8.95 g/m*3 25.4 C 0 km/h
85 03-10-2010 16:53:03 25.8 C 9.15 g/m*3 25.8 C 0 km/h
86 03-10-2010 17:05:02 26.1 C 9.3 g/m*3 26.1 C 0 km/h
87 03-10-2010 17:17:02 25.6 C 9.05 g/m*3 25.6 C 0 km/h
88 03-10-2010 17:29:02 25.6 C 9.52 g/m*3 25.6 C 0 km/h
89 03-10-2010 17:41:03 24.4 C 9.35 g/m*3 24.4 C 0 km/h
90 03-10-2010 17:53:02 24.4 C 9.57 g/m*3 24.4 C 0 km/h
91 03-10-2010 18:05:01 23.6 C 10.21 g/m*3 23.6 C 0 km/h
92 03-10-2010 18:17:02 22.5 C 10.39 g/m*3 22.5 C 0 km/h
93 03-10-2010 18:29:02 21.4 C 10.5 g/m*3 21.4 C 0 km/h
94 03-10-2010 18:41:02 20.4 C 10.61 g/m*3 20.4 C 0 km/h
95 03-10-2010 18:53:02 19.8 C 10.76 g/m*3 19.8 C 0 km/h
96 03-10-2010 19:05:03 19.3 C 10.95 g/m*3 19.3 C 0 km/h
97 03-10-2010 19:17:02 19 C 10.76 g/m*3 19 C 0 km/h
98 03-10-2010 19:29:02 18.9 C 10.85 g/m*3 18.9 C 0 km/h
99 03-10-2010 19:41:02 18.4 C 10.85 g/m*3 18.4 C 0 km/h
100 03-10-2010 19:53:01 18.3 C 10.79 g/m*3 18.3 C 0 km/h
Sensor: Nr:Datum:Temp:Abs-Feuchte:Windchill:Wind:
Aussen-T/F 101 03-10-2010 20:05:02 18.1 C 10.82 g/m*3 18.1 C 0 km/h
102 03-10-2010 20:17:01 18.5 C 10.92 g/m*3 18.5 C 0 km/h
103 03-10-2010 20:29:01 18.4 C 10.85 g/m*3 18.4 C 0 km/h
104 03-10-2010 20:41:02 18.4 C 10.85 g/m*3 18.4 C 0 km/h
105 03-10-2010 20:53:01 18.3 C 10.94 g/m*3 18.3 C 0 km/h
106 03-10-2010 21:05:02 18.3 C 10.94 g/m*3 18.3 C 0 km/h
107 03-10-2010 21:17:02 18.1 C 10.97 g/m*3 18.1 C 0 km/h
108 03-10-2010 21:29:02 17.9 C 11.15 g/m*3 17.9 C 0 km/h
109 03-10-2010 21:41:02 17.8 C 11.08 g/m*3 17.8 C 0 km/h
110 03-10-2010 21:53:01 17.7 C 11.01 g/m*3 17.7 C 0 km/h
111 03-10-2010 22:05:01 17.6 C 11.1 g/m*3 17.6 C 0 km/h
112 03-10-2010 22:17:02 17.5 C 11.03 g/m*3 17.5 C 0 km/h
113 03-10-2010 22:29:02 17.5 C 10.88 g/m*3 17.5 C 0 km/h
114 03-10-2010 22:41:01 17.6 C 10.8 g/m*3 17.6 C 0 km/h
115 03-10-2010 22:53:02 17.6 C 10.5 g/m*3 17.6 C 0 km/h
116 03-10-2010 23:05:01 17.5 C 10.44 g/m*3 17.5 C 0 km/h
117 03-10-2010 23:18:06 17.6 C 10.5 g/m*3 17.6 C 0 km/h
118 03-10-2010 23:30:07 17.6 C 10.35 g/m*3 17.6 C 0 km/h
119 03-10-2010 23:42:07 17.6 C 10.2 g/m*3 17.6 C 0 km/h
120 03-10-2010 23:54:07 17.5 C 10.14 g/m*3 17.5 C 0 km/h
121 04-10-2010 00:06:07 17.4 C 9.93 g/m*3 17.4 C 0 km/h
122 04-10-2010 00:18:07 17.4 C 9.93 g/m*3 17.4 C 0 km/h
123 04-10-2010 00:30:07 17.2 C 9.81 g/m*3 17.2 C 0 km/h
124 04-10-2010 00:42:07 17.2 C 9.81 g/m*3 17.2 C 0 km/h
125 04-10-2010 00:54:07 17.2 C 9.81 g/m*3 17.2 C 0 km/h
Sensor: Nr:Datum:Temp:Abs-Feuchte:Windchill:Wind:
Aussen-T/F 126 04-10-2010 01:06:07 17.2 C 9.81 g/m*3 17.2 C 0 km/h
127 04-10-2010 01:18:07 17.2 C 9.67 g/m*3 17.2 C 0 km/h
128 04-10-2010 01:30:07 17.2 C 9.52 g/m*3 17.2 C 0 km/h
129 04-10-2010 01:42:07 17.2 C 9.52 g/m*3 17.2 C 0 km/h
130 04-10-2010 01:54:07 17.1 C 9.46 g/m*3 17.1 C 0 km/h
131 04-10-2010 02:06:07 17 C 9.55 g/m*3 17 C 0 km/h
132 04-10-2010 02:18:07 16.9 C 9.64 g/m*3 16.9 C 0 km/h
133 04-10-2010 02:30:07 16.8 C 9.72 g/m*3 16.8 C 0 km/h
134 04-10-2010 02:42:07 16.8 C 9.58 g/m*3 16.8 C 0 km/h
135 04-10-2010 02:54:07 16.6 C 9.75 g/m*3 16.6 C 0 km/h
136 04-10-2010 03:06:07 16.4 C 9.77 g/m*3 16.4 C 0 km/h
137 04-10-2010 03:18:07 15.9 C 10.02 g/m*3 15.9 C 0 km/h
138 04-10-2010 03:30:08 15.6 C 9.97 g/m*3 15.6 C 0 km/h
139 04-10-2010 03:42:08 15.5 C 10.05 g/m*3 15.5 C 0 km/h
140 04-10-2010 03:54:08 15.4 C 9.99 g/m*3 15.4 C 0 km/h
141 04-10-2010 04:06:08 15.3 C 9.92 g/m*3 15.3 C 0 km/h
142 04-10-2010 04:18:08 15.2 C 9.99 g/m*3 15.2 C 0 km/h
143 04-10-2010 04:30:08 15.2 C 9.99 g/m*3 15.2 C 0 km/h
144 04-10-2010 04:42:08 15 C 10 g/m*3 15 C 0 km/h
145 04-10-2010 04:54:08 14.8 C 10.01 g/m*3 14.8 C 0 km/h
146 04-10-2010 05:06:08 14.6 C 10.01 g/m*3 14.6 C 0 km/h
147 04-10-2010 05:18:08 14.4 C 9.89 g/m*3 14.4 C 0 km/h
148 04-10-2010 05:30:08 14.3 C 9.95 g/m*3 14.3 C 0 km/h
149 04-10-2010 05:42:08 14.1 C 9.95 g/m*3 14.1 C 0 km/h
150 04-10-2010 05:54:08 14.1 C 9.95 g/m*3 14.1 C 0 km/h
Sensor: Nr:Datum:Temp:Abs-Feuchte:Windchill:Wind:
Aussen-T/F 151 04-10-2010 06:06:08 14.2 C 10.01 g/m*3 14.2 C 0 km/h
152 04-10-2010 06:18:08 13.9 C 10.07 g/m*3 13.9 C 0 km/h
153 04-10-2010 06:30:08 14 C 9.89 g/m*3 14 C 0 km/h
154 04-10-2010 06:42:08 13.8 C 9.89 g/m*3 13.8 C 0 km/h
155 04-10-2010 06:54:08 13.7 C 9.83 g/m*3 13.7 C 0 km/h
156 04-10-2010 07:06:03 13.8 C 10.01 g/m*3 13.8 C 0 km/h
157 04-10-2010 07:18:02 13.7 C 9.83 g/m*3 13.7 C 0 km/h
158 04-10-2010 07:30:02 13.5 C 9.71 g/m*3 13.5 C 0 km/h
159 04-10-2010 07:42:03 13.5 C 9.71 g/m*3 13.5 C 0 km/h
160 04-10-2010 07:54:02 13.6 C 9.89 g/m*3 13.6 C 0 km/h
161 04-10-2010 08:06:02 13.8 C 9.89 g/m*3 13.8 C 0 km/h
162 04-10-2010 08:18:02 14.1 C 9.95 g/m*3 14.1 C 0 km/h
163 04-10-2010 08:30:02 14.3 C 9.83 g/m*3 14.3 C 0 km/h
164 04-10-2010 08:42:03 14.4 C 9.64 g/m*3 14.4 C 0 km/h
165 04-10-2010 08:54:02 14.7 C 9.69 g/m*3 14.7 C 0 km/h
166 04-10-2010 09:06:02 14.9 C 9.56 g/m*3 14.9 C 0 km/h
167 04-10-2010 09:18:02 15 C 9.23 g/m*3 15 C 0 km/h
168 04-10-2010 09:30:02 15 C 9.1 g/m*3 15 C 0 km/h
169 04-10-2010 09:42:02 15 C 9.1 g/m*3 15 C 0 km/h
170 04-10-2010 09:54:02 15.1 C 9.16 g/m*3 15.1 C 0 km/h
171 04-10-2010 10:06:02 15.2 C 9.09 g/m*3 15.2 C 0 km/h
172 04-10-2010 10:18:02 15.3 C 9.01 g/m*3 15.3 C 0 km/h
173 04-10-2010 10:30:02 15.4 C 9.07 g/m*3 15.4 C 0 km/h
174 04-10-2010 10:42:02 16 C 8.86 g/m*3 16 C 0 km/h
175 04-10-2010 10:54:01 16.4 C 8.79 g/m*3 16.4 C 0 km/h
Sensor: Nr:Datum:Temp:Abs-Feuchte:Windchill:Wind:
Aussen-T/F 176 04-10-2010 11:06:02 17.1 C 8.88 g/m*3 17.1 C 0 km/h
177 04-10-2010 11:18:01 17.1 C 8.88 g/m*3 17.1 C 0 km/h
178 04-10-2010 11:30:01 17.6 C 9 g/m*3 17.6 C 0 km/h
179 04-10-2010 11:42:01 18 C 8.91 g/m*3 18 C 0 km/h
180 04-10-2010 11:54:01 18.3 C 8.91 g/m*3 18.3 C 0 km/h
181 04-10-2010 12:06:01 18.5 C 8.86 g/m*3 18.5 C 0 km/h
182 04-10-2010 12:18:02 18 C 8.91 g/m*3 18 C 0 km/h
183 04-10-2010 12:30:02 17.8 C 8.8 g/m*3 17.8 C 0 km/h
184 04-10-2010 12:42:01 17.5 C 8.65 g/m*3 17.5 C 0 km/h
185 04-10-2010 12:54:02 17.4 C 8.6 g/m*3 17.4 C 0 km/h
186 04-10-2010 13:06:01 17.9 C 8.7 g/m*3 17.9 C 0 km/h
187 04-10-2010 13:18:02 18.3 C 8.6 g/m*3 18.3 C 0 km/h
188 04-10-2010 13:30:02 18.9 C 8.59 g/m*3 18.9 C 0 km/h
189 04-10-2010 13:42:01 19.1 C 8.52 g/m*3 19.1 C 0 km/h
190 04-10-2010 13:54:02 19.4 C 8.68 g/m*3 19.4 C 0 km/h
191 04-10-2010 14:06:02 19.3 C 8.63 g/m*3 19.3 C 0 km/h
192 04-10-2010 14:18:02 19.5 C 8.73 g/m*3 19.5 C 0 km/h
193 04-10-2010 14:30:02 19.7 C 8.66 g/m*3 19.7 C 0 km/h
194 04-10-2010 14:42:02 19.9 C 8.59 g/m*3 19.9 C 0 km/h
195 04-10-2010 14:54:02 20.4 C 9.02 g/m*3 20.4 C 0 km/h
196 04-10-2010 15:06:01 21.2 C 8.9 g/m*3 21.2 C 0 km/h
197 04-10-2010 15:18:02 22.3 C 8.29 g/m*3 22.3 C 0 km/h
198 04-10-2010 15:30:02 22.7 C 8.69 g/m*3 22.7 C 0 km/h
199 04-10-2010 15:42:02 23 C 8.63 g/m*3 23 C 0 km/h
200 04-10-2010 15:54:02 23.3 C 8.57 g/m*3 23.3 C 0 km/h
Sensor: Nr:Datum:Temp:Abs-Feuchte:Windchill:Wind:
Aussen-T/F 201 04-10-2010 16:06:02 23.1 C 8.27 g/m*3 23.1 C 0 km/h
202 04-10-2010 16:18:02 23.4 C 8.2 g/m*3 23.4 C 0 km/h
203 04-10-2010 16:30:02 23.9 C 8.44 g/m*3 23.9 C 0 km/h
204 04-10-2010 16:42:02 23.9 C 8 g/m*3 23.9 C 0 km/h
205 04-10-2010 16:54:01 23.9 C 8.22 g/m*3 23.9 C 0 km/h
206 04-10-2010 17:06:02 23.3 C 8.15 g/m*3 23.3 C 0 km/h
207 04-10-2010 17:18:01 22 C 8.54 g/m*3 22 C 0 km/h
208 04-10-2010 17:30:01 20.4 C 9.38 g/m*3 20.4 C 0 km/h
209 04-10-2010 17:42:01 19.5 C 9.73 g/m*3 19.5 C 0 km/h
210 04-10-2010 17:54:01 20.5 C 9.61 g/m*3 20.5 C 0 km/h
211 04-10-2010 18:06:02 20.2 C 9.44 g/m*3 20.2 C 0 km/h
212 04-10-2010 18:18:02 19.5 C 9.57 g/m*3 19.5 C 0 km/h
213 04-10-2010 18:30:02 18.7 C 9.61 g/m*3 18.7 C 0 km/h
214 04-10-2010 18:42:01 17.8 C 9.71 g/m*3 17.8 C 0 km/h
215 04-10-2010 18:54:01 17.2 C 9.81 g/m*3 17.2 C 0 km/h
216 04-10-2010 19:06:01 16.9 C 10.07 g/m*3 16.9 C 0 km/h
217 04-10-2010 19:18:02 16.8 C 10.15 g/m*3 16.8 C 0 km/h
218 04-10-2010 19:30:02 16.5 C 10.11 g/m*3 16.5 C 0 km/h
219 04-10-2010 19:42:01 16.2 C 10.07 g/m*3 16.2 C 0 km/h
220 04-10-2010 19:54:03 16.2 C 10.07 g/m*3 16.2 C 0 km/h
221 04-10-2010 20:06:02 16.4 C 10.19 g/m*3 16.4 C 0 km/h
222 04-10-2010 20:18:02 16.5 C 10.11 g/m*3 16.5 C 0 km/h
223 04-10-2010 20:30:03 16.4 C 10.05 g/m*3 16.4 C 0 km/h
224 04-10-2010 20:42:02 16.1 C 9.87 g/m*3 16.1 C 0 km/h
225 04-10-2010 20:54:02 15.7 C 9.9 g/m*3 15.7 C 0 km/h
Sensor: Nr:Datum:Temp:Abs-Feuchte:Windchill:Wind:
Aussen-T/F 226 04-10-2010 21:06:01 15.6 C 9.97 g/m*3 15.6 C 0 km/h
227 04-10-2010 21:18:02 15.5 C 10.05 g/m*3 15.5 C 0 km/h
228 04-10-2010 21:30:02 15.6 C 9.97 g/m*3 15.6 C 0 km/h
229 04-10-2010 21:42:02 15.4 C 9.85 g/m*3 15.4 C 0 km/h
230 04-10-2010 21:54:01 15 C 9.87 g/m*3 15 C 0 km/h
231 04-10-2010 22:06:02 14.8 C 9.88 g/m*3 14.8 C 0 km/h
232 04-10-2010 22:19:04 14.7 C 9.95 g/m*3 14.7 C 0 km/h
233 04-10-2010 22:31:04 14.5 C 9.95 g/m*3 14.5 C 0 km/h
234 04-10-2010 22:43:04 14.5 C 9.95 g/m*3 14.5 C 0 km/h
235 04-10-2010 22:55:04 14.3 C 9.83 g/m*3 14.3 C 0 km/h
236 04-10-2010 23:07:04 14.2 C 9.89 g/m*3 14.2 C 0 km/h
237 04-10-2010 23:19:04 14.2 C 9.89 g/m*3 14.2 C 0 km/h
238 04-10-2010 23:31:04 14.3 C 9.95 g/m*3 14.3 C 0 km/h
239 04-10-2010 23:43:05 14.2 C 9.89 g/m*3 14.2 C 0 km/h
240 04-10-2010 23:55:05 14.1 C 9.95 g/m*3 14.1 C 0 km/h
241 05-10-2010 00:07:05 14.1 C 9.95 g/m*3 14.1 C 0 km/h
242 05-10-2010 00:19:05 14.1 C 9.95 g/m*3 14.1 C 0 km/h
243 05-10-2010 00:31:05 14.2 C 10.01 g/m*3 14.2 C 0 km/h
244 05-10-2010 00:43:05 14.3 C 10.07 g/m*3 14.3 C 0 km/h
245 05-10-2010 00:55:05 14.3 C 10.07 g/m*3 14.3 C 0 km/h
246 05-10-2010 01:07:05 14.2 C 10.01 g/m*3 14.2 C 0 km/h
247 05-10-2010 01:19:05 14.1 C 9.95 g/m*3 14.1 C 0 km/h
248 05-10-2010 01:31:05 13.8 C 9.77 g/m*3 13.8 C 0 km/h
249 05-10-2010 01:43:05 13.8 C 9.89 g/m*3 13.8 C 0 km/h
250 05-10-2010 01:55:05 13.8 C 9.89 g/m*3 13.8 C 0 km/h
Sensor: Nr:Datum:Temp:Abs-Feuchte:Windchill:Wind:
Aussen-T/F 251 05-10-2010 02:07:05 13.4 C 9.65 g/m*3 13.4 C 0 km/h
252 05-10-2010 02:19:05 13.5 C 9.71 g/m*3 13.5 C 0 km/h
253 05-10-2010 02:31:05 13.5 C 9.83 g/m*3 13.5 C 0 km/h
254 05-10-2010 02:43:05 13.6 C 10 g/m*3 13.6 C 0 km/h
255 05-10-2010 02:55:05 13.6 C 10 g/m*3 13.6 C 0 km/h
256 05-10-2010 03:07:05 13.6 C 10 g/m*3 13.6 C 0 km/h
257 05-10-2010 03:19:05 13.6 C 10 g/m*3 13.6 C 0 km/h
258 05-10-2010 03:31:05 13.7 C 10.07 g/m*3 13.7 C 0 km/h
259 05-10-2010 03:43:05 13.6 C 10 g/m*3 13.6 C 0 km/h
260 05-10-2010 03:55:06 13.5 C 9.94 g/m*3 13.5 C 0 km/h
261 05-10-2010 04:07:06 13.5 C 9.94 g/m*3 13.5 C 0 km/h
262 05-10-2010 04:19:06 13.6 C 10.12 g/m*3 13.6 C 0 km/h
263 05-10-2010 04:31:06 13.6 C 10.12 g/m*3 13.6 C 0 km/h
264 05-10-2010 04:43:06 13.6 C 10.12 g/m*3 13.6 C 0 km/h
265 05-10-2010 04:55:06 13.7 C 10.18 g/m*3 13.7 C 0 km/h
266 05-10-2010 05:07:06 13.7 C 10.18 g/m*3 13.7 C 0 km/h
267 05-10-2010 05:19:06 13.7 C 10.18 g/m*3 13.7 C 0 km/h
268 05-10-2010 05:31:06 13.6 C 10.12 g/m*3 13.6 C 0 km/h
269 05-10-2010 05:43:06 13.5 C 10.06 g/m*3 13.5 C 0 km/h
270 05-10-2010 05:55:06 13.5 C 10.18 g/m*3 13.5 C 0 km/h
271 05-10-2010 06:07:06 13.4 C 10.23 g/m*3 13.4 C 0 km/h
272 05-10-2010 06:19:06 13.4 C 10.35 g/m*3 13.4 C 0 km/h
273 05-10-2010 06:31:06 13.4 C 10.35 g/m*3 13.4 C 0 km/h
274 05-10-2010 06:43:06 13.4 C 10.46 g/m*3 13.4 C 0 km/h
275 05-10-2010 06:55:06 13.5 C 10.53 g/m*3 13.5 C 0 km/h
Sensor: Nr:Datum:Temp:Abs-Feuchte:Windchill:Wind:
Aussen-T/F 276 05-10-2010 07:07:01 13.4 C 10.46 g/m*3 13.4 C 0 km/h
277 05-10-2010 07:19:02 13.4 C 10.58 g/m*3 13.4 C 0 km/h
278 05-10-2010 07:31:02 13.4 C 10.58 g/m*3 13.4 C 0 km/h
279 05-10-2010 07:43:02 13.4 C 10.58 g/m*3 13.4 C 0 km/h
280 05-10-2010 07:55:02 13.4 C 10.58 g/m*3 13.4 C 0 km/h
281 05-10-2010 08:07:02 13.4 C 10.58 g/m*3 13.4 C 0 km/h
282 05-10-2010 08:19:02 13.2 C 10.45 g/m*3 13.2 C 0 km/h
283 05-10-2010 08:31:02 13.1 C 10.38 g/m*3 13.1 C 0 km/h
284 05-10-2010 08:43:02 13 C 10.32 g/m*3 13 C 0 km/h
285 05-10-2010 08:55:02 13 C 10.32 g/m*3 13 C 0 km/h
286 05-10-2010 09:07:02 13 C 10.43 g/m*3 13 C 0 km/h
287 05-10-2010 09:19:02 13.2 C 10.56 g/m*3 13.2 C 0 km/h
288 05-10-2010 09:31:01 13.4 C 10.69 g/m*3 13.4 C 0 km/h
289 05-10-2010 09:43:01 13.4 C 10.81 g/m*3 13.4 C 0 km/h
290 05-10-2010 09:55:02 13.5 C 10.88 g/m*3 13.5 C 0 km/h
291 05-10-2010 10:07:01 13.8 C 11.08 g/m*3 13.8 C 0 km/h
292 05-10-2010 10:19:02 14.3 C 11.43 g/m*3 14.3 C 0 km/h
293 05-10-2010 10:31:02 14.7 C 11.83 g/m*3 14.7 C 0 km/h
294 05-10-2010 10:43:02 15.2 C 12.07 g/m*3 15.2 C 0 km/h
295 05-10-2010 10:55:02 16 C 12.67 g/m*3 16 C 0 km/h
296 05-10-2010 11:07:02 17.2 C 13.62 g/m*3 17.2 C 0 km/h
297 05-10-2010 11:19:02 17.3 C 13.7 g/m*3 17.3 C 0 km/h
298 05-10-2010 11:31:02 17.4 C 13.34 g/m*3 17.4 C 0 km/h
299 05-10-2010 11:43:02 17.3 C 12.37 g/m*3 17.3 C 0 km/h
300 05-10-2010 11:55:01 18.2 C 11.97 g/m*3 18.2 C 0 km/h
Sensor: Nr:Datum:Temp:Abs-Feuchte:Windchill:Wind:
Aussen-T/F 301 05-10-2010 12:07:02 18.3 C 11.73 g/m*3 18.3 C 0 km/h
302 05-10-2010 12:19:02 17.9 C 11.45 g/m*3 17.9 C 0 km/h
303 05-10-2010 12:31:01 18 C 11.37 g/m*3 18 C 0 km/h
304 05-10-2010 12:43:01 17.9 C 11.3 g/m*3 17.9 C 0 km/h
305 05-10-2010 12:55:02 18.4 C 11.32 g/m*3 18.4 C 0 km/h
306 05-10-2010 13:07:01 18.7 C 11.37 g/m*3 18.7 C 0 km/h
307 05-10-2010 13:19:02 18.9 C 11.18 g/m*3 18.9 C 0 km/h
308 05-10-2010 13:31:01 19 C 11.08 g/m*3 19 C 0 km/h
309 05-10-2010 13:43:01 19.3 C 11.44 g/m*3 19.3 C 0 km/h
310 05-10-2010 13:55:02 20 C 11.06 g/m*3 20 C 0 km/h
311 05-10-2010 14:07:02 19.9 C 10.31 g/m*3 19.9 C 0 km/h
312 05-10-2010 14:19:02 19.5 C 10.57 g/m*3 19.5 C 0 km/h
313 05-10-2010 14:31:02 19.6 C 10.8 g/m*3 19.6 C 0 km/h
314 05-10-2010 14:43:02 18.7 C 11.05 g/m*3 18.7 C 0 km/h
315 05-10-2010 14:55:02 18.6 C 11.94 g/m*3 18.6 C 0 km/h
316 05-10-2010 15:07:01 19 C 12.22 g/m*3 19 C 0 km/h
317 05-10-2010 15:19:02 17.9 C 12.06 g/m*3 17.9 C 0 km/h
318 05-10-2010 15:31:02 18.3 C 12.51 g/m*3 18.3 C 0 km/h
319 05-10-2010 15:43:02 19.3 C 13.27 g/m*3 19.3 C 0 km/h
320 05-10-2010 15:55:01 19.5 C 13.09 g/m*3 19.5 C 0 km/h
321 05-10-2010 16:07:02 19 C 12.55 g/m*3 19 C 0 km/h
322 05-10-2010 16:19:01 18.7 C 12.65 g/m*3 18.7 C 0 km/h
323 05-10-2010 16:31:02 18.4 C 12.43 g/m*3 18.4 C 0 km/h
324 05-10-2010 16:43:02 18.3 C 12.51 g/m*3 18.3 C 0 km/h
325 05-10-2010 16:55:02 18.1 C 12.21 g/m*3 18.1 C 0 km/h
Sensor: Nr:Datum:Temp:Abs-Feuchte:Windchill:Wind:
Aussen-T/F 326 05-10-2010 17:07:02 17.7 C 11.92 g/m*3 17.7 C 0 km/h
327 05-10-2010 17:19:01 17.2 C 11.42 g/m*3 17.2 C 0 km/h
328 05-10-2010 17:31:02 16.8 C 11.58 g/m*3 16.8 C 0 km/h
329 05-10-2010 17:43:02 16.8 C 11.72 g/m*3 16.8 C 0 km/h
330 05-10-2010 17:55:02 17 C 11.72 g/m*3 17 C 0 km/h
331 05-10-2010 18:07:02 17.1 C 11.65 g/m*3 17.1 C 0 km/h
332 05-10-2010 18:19:02 17.1 C 11.65 g/m*3 17.1 C 0 km/h
333 05-10-2010 18:31:02 17.1 C 11.35 g/m*3 17.1 C 0 km/h
334 05-10-2010 18:43:02 17 C 11.29 g/m*3 17 C 0 km/h
335 05-10-2010 18:55:02 16.8 C 11.29 g/m*3 16.8 C 0 km/h
336 05-10-2010 19:07:02 16.6 C 11.3 g/m*3 16.6 C 0 km/h
337 05-10-2010 19:19:03 16.5 C 11.23 g/m*3 16.5 C 0 km/h
338 05-10-2010 19:31:02 16.5 C 11.37 g/m*3 16.5 C 0 km/h
339 05-10-2010 19:43:02 17.3 C 11.64 g/m*3 17.3 C 0 km/h
340 05-10-2010 19:55:02 16.4 C 11.03 g/m*3 16.4 C 0 km/h
341 05-10-2010 20:07:02 16.4 C 11.03 g/m*3 16.4 C 0 km/h
342 05-10-2010 20:19:02 16.4 C 11.03 g/m*3 16.4 C 0 km/h
343 05-10-2010 20:31:02 16.4 C 11.03 g/m*3 16.4 C 0 km/h
344 05-10-2010 20:43:02 16.3 C 10.96 g/m*3 16.3 C 0 km/h
345 05-10-2010 20:55:02 16.3 C 10.68 g/m*3 16.3 C 0 km/h
346 05-10-2010 21:07:02 16.1 C 10.55 g/m*3 16.1 C 0 km/h
347 05-10-2010 21:19:02 16 C 10.35 g/m*3 16 C 0 km/h
348 05-10-2010 21:31:01 15.6 C 10.24 g/m*3 15.6 C 0 km/h
349 05-10-2010 21:43:01 15.4 C 10.12 g/m*3 15.4 C 0 km/h
350 05-10-2010 21:55:02 15.3 C 10.06 g/m*3 15.3 C 0 km/h
Sensor: Nr:Datum:Temp:Abs-Feuchte:Windchill:Wind:
Aussen-T/F 351 05-10-2010 22:07:01 15.2 C 9.99 g/m*3 15.2 C 0 km/h
352 05-10-2010 22:19:02 15.3 C 9.92 g/m*3 15.3 C 0 km/h
353 05-10-2010 22:31:01 15.4 C 9.99 g/m*3 15.4 C 0 km/h
354 05-10-2010 22:43:01 15.2 C 9.99 g/m*3 15.2 C 0 km/h
355 05-10-2010 22:55:02 15.4 C 9.99 g/m*3 15.4 C 0 km/h
356 05-10-2010 23:07:01 15.6 C 9.97 g/m*3 15.6 C 0 km/h
357 05-10-2010 23:19:02 15.6 C 9.97 g/m*3 15.6 C 0 km/h
358 05-10-2010 23:31:01 15.6 C 9.97 g/m*3 15.6 C 0 km/h
359 05-10-2010 23:43:01 15.6 C 9.97 g/m*3 15.6 C 0 km/h
360 05-10-2010 23:55:02 15.6 C 9.97 g/m*3 15.6 C 0 km/h

Legende:
   Min
   Max


Maximal/Minimal-Werte vom 27.08.2020 - 29.09.2020

Sensor Min Max Avg
Temp
(Aussen-T/F)
7.3 °C
21-09-2020  07:15:00
33.7 °C
15-09-2020  17:35:00
16.03 °C

Die Daten stammen von einer Davis Vantage Pro 2 Wetter-Station und werden unter Linux mit der Software wview2wettercgi und aufbereitet. Alle Angaben erfolgen ohne Gewähr für ihre Vollständigkeit oder Richtigkeit.
Kontakt: Rainer Krienke krienke@uni-koblenz.de . Meine Webseiten an der Uni Koblenz oder privat.
Version: $Revision: 0.78 $